Location: ?????????
(41.2286°N, 23.0068°E)
Time: 08:21:03
(UTC+00:00)

Cosmos 1980 - Pass Details

Date: 08 November 2025
Orbit: 836 x 847 km, 71.0° (Epoch: 04 December)

Event Time Altitude Azimuth Distance (km) Brightness Sun altitude
Rises 03:14:46 0° 191° (S) 3,372 6.8 -21.5°
Reaches altitude 10° 03:17:13 10° 187° (S) 2,444 6.1 -21.0°
Maximum altitude 03:22:43 60° 109° (ESE) 961 4.2 -20.0°
Drops below altitude 10° 03:28:16 10° 31° (NNE) 2,467 6.4 -18.9°
Sets 03:30:45 0° 28° (NNE) 3,408 7.1 -18.5°
